Wind_Speed
32 31 31 32 31 32 33 33 34 31 30 26 27 30 32 32 32 32 32 32 33 33 34 35 37 38 39 40 41 42 43 45 46 47 48 49 51 52 53 54 54 55 56 56
32 31 31 32 32 32 32 32 32 31 28 25 29 32 32 32 32 32 33 33 34 34 35 36 37 38 39 40 41 43 45 46 47 48 49 50 51 52 53 54 55 56 56 57
32 31 33 33 29 30 30 30 30 30 27 27 31 32 32 33 33 34 35 35 35 35 36 37 38 39 40 41 43 44 46 47 48 49 50 51 52 53 54 55 55 56 57 58
33 33 35 29 27 28 29 29 29 29 28 30 32 32 32 33 34 34 34 34 35 36 37 38 39 40 41 43 44 45 46 47 49 50 51 52 53 54 54 55 56 56 58 59
35 35 34 29 26 25 28 27 27 29 29 30 31 31 31 32 33 33 34 34 35 36 38 39 40 41 42 43 45 46 47 48 50 51 52 52 53 54 54 55 56 58 59 61
36 35 33 27 25 26 29 28 25 29 29 30 31 31 31 31 32 33 34 36 37 38 39 39 40 42 43 44 45 47 48 49 50 51 52 52 53 54 55 57 58 60 61 63
35 34 32 28 26 27 28 25 26 28 29 30 30 31 31 31 32 34 35 36 37 38 39 40 42 43 44 45 46 47 48 49 50 51 52 53 54 55 57 59 60 62 64 65
35 35 31 28 28 28 27 28 29 29 29 30 30 31 32 33 34 35 36 37 38 39 40 41 43 44 45 46 47 47 48 49 50 51 53 54 55 57 59 61 63 64 66 67
35 33 30 30 31 30 30 30 30 31 31 31 32 33 33 34 35 36 37 38 39 40 42 43 44 45 46 46 47 47 48 50 51 52 54 55 57 59 61 63 65 67 69 71
36 34 33 32 32 32 32 32 31 31 32 32 33 34 35 35 36 37 38 39 40 41 42 43 44 45 46 46 47 48 49 50 52 53 55 57 59 61 63 65 68 70 72 75
36 34 34 34 33 33 34 34 33 33 34 34 34 35 36 36 37 38 39 39 40 41 43 43 44 44 45 46 47 48 50 52 53 55 57 59 61 63 66 68 71 74 76 78
36 35 36 36 35 35 35 35 35 35 35 35 35 36 36 37 38 38 39 40 41 42 43 43 44 45 46 47 48 49 51 53 55 57 59 61 63 65 68 70 73 76 79 81
36 36 37 36 35 35 35 35 36 36 36 36 36 37 37 37 38 39 40 41 42 42 43 44 45 46 46 47 49 51 53 55 57 59 61 64 66 69 70 72 75 77 79 82
37 37 37 36 36 36 36 36 36 36 36 36 37 37 38 38 39 40 40 41 41 42 42 43 44 46 47 49 51 53 55 57 59 62 64 67 69 72 74 76 76 77 79 83
37 37 37 36 36 36 36 35 35 35 36 36 37 37 37 38 38 39 39 40 40 41 43 44 46 47 49 51 53 55 57 60 62 65 67 70 72 74 76 78 79 81 81 80
37 37 37 36 36 35 35 35 35 36 36 36 36 37 37 37 38 38 39 40 41 43 44 46 48 50 52 54 55 58 60 63 65 68 70 72 74 76 78 80 82 82 80 77
36 36 36 36 36 36 36 36 36 35 35 35 36 36 37 37 38 39 40 41 43 45 46 48 50 52 54 56 58 61 63 65 68 70 72 74 76 78 80 82 82 80 76 72
35 35 35 35 35 35 35 35 35 35 35 35 36 36 37 38 39 40 41 43 45 47 49 50 52 54 57 59 61 63 66 68 69 72 74 76 78 80 82 81 79 75 70 67
34 34 34 34 33 33 33 33 34 34 35 35 36 36 37 39 40 42 43 45 47 49 51 53 55 57 59 61 63 65 67 69 72 74 76 78 79 81 80 77 74 70 66 63
33 33 32 32 32 32 32 33 34 34 35 36 37 38 39 41 42 44 45 47 49 51 53 55 57 59 61 63 65 67 70 72 75 77 78 79 79 78 75 72 69 65 62 61
32 32 32 32 32 33 33 34 34 35 36 37 38 39 41 42 44 46 47 49 52 54 55 57 59 60 62 65 68 70 73 75 77 78 79 78 76 74 70 67 64 62 60 58
32 32 32 32 33 33 34 35 35 36 37 38 40 41 43 44 46 48 50 52 54 55 57 58 60 63 65 68 71 74 75 77 78 78 77 74 72 68 65 63 61 59 56 54
32 32 32 33 33 34 35 36 37 38 39 40 41 43 45 47 48 50 51 53 55 56 58 60 63 66 69 72 74 76 77 78 76 74 71 69 66 63 62 60 57 54 51 48
31 32 33 34 35 36 36 37 38 39 40 42 43 45 46 48 49 51 52 54 56 58 60 63 66 69 71 74 76 76 76 74 71 68 66 63 61 60 58 56 52 49 46 43
31 32 33 34 35 36 37 38 39 40 41 43 44 46 47 48 49 51 53 55 57 59 62 65 68 71 73 75 75 74 71 68 66 64 61 59 57 56 54 51 47 44 41 38
32 33 33 34 35 36 37 38 39 40 42 43 44 46 47 48 50 52 54 57 60 62 65 67 70 73 74 74 72 69 66 64 62 60 58 56 54 52 49 46 42 39 36 34
32 33 34 35 36 36 37 38 39 41 42 43 44 46 48 50 52 55 57 60 63 65 68 70 72 73 71 69 67 65 62 61 59 56 54 52 50 47 44 41 38 35 33 31
Wind_Direction
245 246 248 250 253 254 256 259 262 264 264 264 261 261 261 263 263 262 263 265 267 268 271 274 276 278 280 282 285 287 290 291 293 294 295 297 298 299 299 300 300 301 302 302
244 246 249 250 252 255 256 259 262 264 264 263 261 261 263 265 265 266 266 268 269 272 274 276 278 280 282 284 287 289 291 293 294 295 297 298 299 299 299 300 301 302 302 303
244 247 249 250 254 257 258 260 261 264 265 262 262 262 264 266 267 269 270 271 273 275 277 279 281 283 285 287 289 291 292 294 295 297 298 298 299 299 300 301 302 302 303 303
243 245 249 254 254 256 257 257 259 263 264 264 263 263 265 267 270 272 273 274 276 278 280 282 284 285 288 289 291 292 294 295 296 297 298 298 299 300 300 301 302 303 303 304
244 248 252 253 255 257 257 256 258 262 264 265 265 266 266 268 271 272 273 275 278 280 282 285 286 288 290 291 292 294 295 296 296 297 298 299 299 300 301 302 303 304 304 305
246 250 253 254 255 256 259 259 261 263 263 264 266 267 268 269 272 274 276 278 280 283 285 287 288 290 292 293 294 295 296 296 297 298 299 299 300 301 302 303 304 305 305 305
248 252 254 256 258 258 260 263 259 259 261 263 266 268 270 272 275 277 279 281 282 284 286 288 290 292 293 294 295 296 296 297 298 299 300 300 301 302 303 304 305 305 306 306
248 251 255 259 261 261 262 260 260 261 262 265 268 270 273 275 277 278 280 282 284 286 288 290 291 292 293 294 295 296 297 298 299 300 301 301 302 303 304 305 305 306 306 307
249 254 257 257 259 260 260 261 262 264 264 266 269 272 274 277 279 280 282 283 285 287 289 291 292 293 294 295 296 297 297 298 299 301 302 302 303 304 305 305 306 307 307 308
248 251 254 256 257 259 261 262 264 265 267 268 271 274 276 278 280 282 283 285 287 289 290 292 293 294 295 296 297 297 298 299 301 302 303 303 304 305 306 306 307 308 308 308
249 251 253 255 257 259 260 262 265 268 269 271 274 277 278 280 281 283 285 287 289 290 292 293 294 295 296 297 298 298 300 301 302 303 303 304 305 306 307 308 308 308 309 309
250 252 254 255 257 257 259 263 266 270 272 275 277 279 280 282 283 285 287 288 290 291 293 294 295 295 296 297 299 300 301 302 303 303 304 305 306 307 308 308 309 310 310 310
249 251 253 255 255 257 261 265 269 272 274 276 279 280 282 284 285 286 288 290 291 292 293 294 295 296 297 299 300 301 302 302 303 304 305 306 307 307 308 309 310 310 310 310
249 252 254 255 256 259 262 266 270 273 275 277 279 281 283 285 286 287 289 290 291 293 294 296 297 298 299 301 301 302 303 303 304 305 306 307 307 308 309 310 310 310 310 311
250 253 255 256 257 260 263 267 270 273 276 278 280 282 283 285 287 288 290 291 292 293 295 297 298 299 301 302 302 303 304 304 305 306 307 307 308 309 310 310 310 311 311 311
249 252 255 257 259 261 264 268 271 274 276 278 280 282 284 285 287 288 290 291 292 294 296 297 298 300 301 302 303 304 305 305 306 307 308 308 309 310 310 311 311 312 311 311
249 252 255 258 261 264 267 270 272 274 277 279 281 282 284 286 288 289 290 292 293 295 297 298 299 301 302 303 304 305 305 306 307 308 308 309 310 310 311 311 312 312 312 311
250 253 256 260 264 266 268 271 273 276 278 279 281 283 285 287 288 290 291 293 294 296 297 299 300 302 303 303 304 305 306 307 308 308 309 310 310 311 311 312 312 312 311 311
250 254 258 261 264 266 269 272 274 276 278 280 281 284 286 288 289 291 293 294 296 297 298 300 301 302 303 304 305 306 307 308 309 309 310 310 311 311 312 312 312 311 311 311
253 256 259 262 264 267 270 272 274 277 279 281 283 285 287 289 291 292 294 295 296 298 299 300 301 302 304 305 306 307 308 309 310 310 310 311 311 312 312 312 312 311 311 311
254 257 259 262 264 267 270 273 275 278 280 283 285 286 288 290 291 293 294 295 297 298 300 301 302 303 305 306 307 308 309 309 310 310 311 311 311 312 312 312 312 312 311 311
255 258 260 263 266 268 271 274 277 279 281 283 285 287 289 291 292 293 295 296 298 299 301 302 303 305 306 307 308 309 309 310 310 311 311 311 312 312 312 312 312 312 312 311
256 258 261 264 267 269 272 275 277 279 282 284 286 288 290 292 293 294 296 298 299 301 302 303 305 306 307 308 309 310 310 310 311 311 312 312 312 313 313 313 313 312 312 311
258 261 263 266 268 271 273 275 278 280 283 285 287 289 291 292 294 296 297 299 301 303 304 305 306 307 308 309 310 311 311 311 311 312 312 313 313 314 314 314 313 313 312 312
260 263 265 267 269 272 274 276 279 281 284 286 288 290 292 293 295 297 299 302 304 305 306 307 308 309 310 311 311 311 311 311 312 312 313 313 313 314 315 314 314 313 313 312
261 263 265 268 271 273 275 278 280 283 285 287 289 292 294 296 298 300 302 304 306 307 308 309 310 310 311 311 311 311 312 312 312 312 312 313 314 315 315 315 315 314 314 313
262 264 267 270 272 274 277 279 282 284 286 289 291 293 296 298 300 302 303 305 307 308 309 310 311 311 311 311 312 312 312 312 312 312 312 313 314 314 314 315 315 314 314 313
Height
5679 5682 5684 5686 5687 5688 5688 5690 5691 5694 5696 5699 5698 5698 5698 5699 5700 5701 5702 5702 5702 5702 5701 5701 5699 5698 5696 5694 5691 5689 5686 5682 5679 5675 5670 5666 5661 5656 5651 5646 5640 5635 5629 5623
5671 5674 5675 5677 5679 5680 5682 5683 5684 5686 5689 5691 5690 5690 5691 5692 5692 5693 5694 5694 5694 5693 5693 5691 5690 5688 5686 5684 5681 5678 5675 5671 5667 5663 5659 5654 5649 5644 5638 5633 5627 5621 5615 5609
5664 5666 5666 5669 5674 5674 5676 5677 5678 5679 5683 5683 5682 5683 5683 5684 5685 5685 5685 5685 5685 5684 5683 5682 5680 5678 5676 5674 5671 5668 5664 5660 5656 5652 5647 5642 5637 5631 5626 5620 5614 5608 5602 5595
5656 5658 5659 5667 5667 5668 5669 5670 5672 5673 5674 5675 5675 5675 5676 5676 5676 5677 5676 5676 5676 5675 5674 5672 5670 5668 5666 5663 5660 5656 5653 5648 5644 5639 5634 5629 5624 5619 5613 5607 5601 5595 5588 5581
5647 5649 5652 5658 5660 5661 5661 5663 5665 5665 5666 5666 5666 5667 5668 5668 5668 5668 5668 5667 5666 5665 5664 5662 5660 5658 5655 5652 5649 5645 5641 5637 5632 5627 5622 5617 5611 5605 5600 5594 5587 5581 5574 5566
5640 5641 5644 5652 5654 5654 5654 5656 5659 5658 5658 5658 5658 5659 5661 5660 5659 5659 5659 5658 5657 5656 5654 5652 5650 5647 5644 5641 5637 5633 5629 5624 5619 5614 5609 5604 5598 5592 5586 5580 5574 5567 5559 5551
5632 5634 5638 5644 5646 5647 5649 5652 5651 5650 5650 5651 5651 5652 5652 5652 5651 5650 5650 5649 5647 5646 5644 5642 5639 5636 5633 5629 5625 5621 5617 5612 5607 5602 5596 5591 5585 5579 5572 5566 5560 5552 5545 5537
5625 5627 5634 5637 5637 5639 5641 5641 5641 5642 5643 5643 5644 5643 5643 5643 5642 5641 5640 5639 5637 5636 5633 5631 5628 5625 5621 5618 5613 5609 5604 5599 5594 5589 5583 5577 5571 5565 5558 5551 5544 5536 5528 5521
5619 5624 5627 5628 5629 5630 5631 5633 5633 5634 5635 5635 5635 5635 5634 5634 5633 5632 5631 5629 5627 5625 5623 5620 5617 5613 5610 5606 5601 5597 5592 5587 5581 5576 5570 5563 5557 5550 5543 5535 5527 5519 5511 5503
5611 5614 5617 5619 5620 5622 5623 5624 5624 5625 5626 5626 5626 5626 5626 5625 5624 5622 5621 5619 5617 5615 5612 5609 5605 5602 5598 5594 5589 5585 5579 5574 5568 5563 5556 5550 5542 5535 5527 5519 5510 5502 5493 5484
5602 5606 5608 5610 5611 5613 5614 5615 5616 5617 5617 5617 5617 5617 5616 5615 5614 5612 5611 5609 5606 5604 5600 5597 5593 5590 5586 5582 5577 5572 5567 5561 5555 5549 5543 5536 5528 5520 5512 5503 5492 5483 5473 5463
5595 5598 5600 5601 5603 5604 5605 5606 5607 5608 5608 5608 5608 5607 5606 5605 5604 5602 5600 5598 5595 5592 5589 5586 5582 5578 5574 5569 5565 5560 5554 5548 5542 5535 5528 5521 5513 5506 5496 5486 5476 5464 5452 5441
5586 5588 5590 5592 5594 5595 5596 5597 5598 5599 5599 5598 5598 5597 5596 5595 5593 5592 5589 5587 5584 5581 5578 5574 5570 5566 5562 5557 5552 5547 5541 5535 5528 5521 5513 5505 5497 5488 5481 5473 5461 5448 5435 5422
5576 5578 5581 5583 5585 5586 5587 5588 5589 5589 5589 5589 5588 5587 5586 5585 5583 5581 5578 5576 5573 5570 5566 5562 5558 5554 5549 5544 5539 5533 5527 5520 5513 5505 5497 5489 5479 5470 5460 5451 5444 5434 5420 5405
5568 5570 5572 5574 5576 5577 5578 5579 5580 5580 5580 5579 5578 5577 5576 5574 5572 5570 5568 5565 5562 5558 5555 5551 5546 5541 5536 5531 5525 5519 5512 5505 5498 5490 5481 5471 5462 5452 5441 5431 5421 5411 5401 5389
5558 5560 5562 5565 5567 5568 5569 5570 5570 5570 5570 5569 5568 5567 5565 5564 5562 5559 5557 5554 5551 5547 5543 5539 5534 5529 5523 5517 5511 5505 5497 5490 5481 5473 5464 5454 5444 5433 5422 5411 5400 5389 5378 5367
5549 5552 5554 5556 5558 5559 5560 5560 5561 5561 5560 5559 5558 5557 5555 5553 5551 5548 5546 5543 5539 5535 5531 5526 5521 5515 5509 5503 5497 5490 5482 5474 5464 5455 5445 5435 5425 5414 5403 5391 5380 5369 5358 5347
5541 5543 5545 5547 5549 5550 5551 5551 5551 5551 5550 5549 5548 5546 5545 5543 5540 5538 5534 5531 5527 5522 5518 5513 5507 5502 5495 5488 5481 5474 5466 5457 5448 5438 5428 5417 5406 5395 5383 5371 5360 5349 5340 5330
5533 5535 5537 5538 5540 5540 5541 5541 5541 5541 5540 5539 5538 5536 5534 5532 5529 5526 5523 5519 5514 5510 5505 5499 5493 5487 5480 5473 5465 5457 5448 5439 5430 5420 5409 5398 5387 5376 5363 5352 5341 5331 5322 5313
5524 5527 5528 5529 5530 5531 5532 5532 5532 5531 5530 5529 5527 5525 5523 5521 5518 5514 5510 5506 5501 5496 5491 5485 5479 5472 5465 5457 5449 5440 5431 5421 5411 5401 5390 5379 5368 5356 5345 5334 5324 5314 5306 5297
5516 5518 5519 5520 5521 5522 5522 5522 5521 5521 5520 5518 5516 5514 5512 5509 5506 5502 5498 5493 5488 5482 5477 5470 5463 5456 5449 5441 5432 5423 5413 5403 5392 5381 5370 5359 5348 5338 5327 5317 5307 5298 5290 5282
5507 5508 5510 5511 5512 5512 5512 5512 5511 5510 5509 5507 5505 5503 5500 5497 5493 5489 5484 5479 5474 5468 5462 5455 5448 5440 5432 5424 5415 5405 5394 5384 5373 5362 5351 5340 5330 5320 5310 5301 5292 5283 5275 5267
5498 5499 5500 5501 5502 5502 5502 5501 5500 5499 5498 5496 5493 5491 5488 5484 5480 5476 5471 5465 5459 5453 5446 5439 5431 5423 5415 5406 5396 5386 5375 5364 5353 5343 5332 5322 5313 5303 5294 5286 5277 5269 5261 5254
5488 5490 5491 5491 5492 5492 5491 5490 5489 5488 5486 5484 5481 5478 5475 5471 5467 5461 5456 5451 5445 5438 5431 5423 5414 5406 5396 5387 5377 5367 5356 5345 5335 5325 5316 5306 5297 5288 5280 5271 5263 5256 5249 5243
5479 5480 5480 5481 5481 5481 5480 5479 5478 5476 5474 5471 5468 5465 5462 5457 5453 5448 5443 5437 5430 5423 5415 5406 5397 5388 5378 5368 5358 5348 5337 5327 5318 5309 5300 5291 5283 5275 5266 5258 5251 5244 5238 5232
5469 5470 5470 5470 5470 5470 5469 5468 5466 5464 5462 5459 5456 5452 5448 5444 5439 5434 5428 5422 5415 5407 5399 5390 5380 5370 5360 5350 5340 5330 5320 5311 5303 5294 5285 5277 5269 5262 5254 5247 5240 5234 5229 5224
5459 5459 5460 5460 5459 5459 5457 5456 5454 5452 5450 5447 5443 5439 5435 5431 5426 5420 5414 5407 5399 5391 5382 5373 5363 5353 5343 5333 5323 5314 5305 5296 5288 5280 5272 5264 5257 5250 5243 5237 5231 5225 5220 5216